SL-16 R/B, 22566

Orbit data source: Space-Track

SL-16 R/B, 22566 is space debris in LEO originally from a launch on Fri, 26 Mar 1993 UTC launched from the Tyuratam Missile And Space Complex (TTMTR). Debris objects in space refer to the collection of defunct objects orbiting the Earth. Examples of debris include non-operational satellites, rocket bodies, and fragments generated from explosions, collisions, or faulty payload assembly.

Loading next visibility...
Identifier
22566, 1993-016B
Orbit
LEO
Country
Flag of CISCIS
Related business
Manufacturer
Yuzhnoe
Mission
Spacecraft
Bus & Motor
11S772, Unknown motor
Mass
9,000 kg wet, 9,000 kg dry
Launch date (UTC)
1993-03-26 (33 years ago)
Launch vehicle
Unknown
Launch site
Tyuratam Missile And Space Complex (TTMTR)
Object type
Payload
Rocket body
Debris
Shape & HBR
Cyl, 5.6 m
Radar Cross Section
37.829 m², Large (>1 m²)

Expand to show TLE details & history
Last TLE update: 10 hours ago

TLE from 10 hours ago
0 SL-16 R/B
1 22566U 93016B   26255.22556050 -.00000249  00000-0 -10344-3 0  9997
2 22566  71.0077 183.3969 0009009  27.4159 332.7437 14.15317296728566
Epoch: 2026-09-12T05:24Z
TLE epoch observation values (Epoch: 2026-09-12T05:24:48.427Z)
Latitude
-0.00005°
Longitude
110.95749°
Altitude
837.853 km
Speed
7.437 km/s
True Right ascension
12h 13m 35s
True Declination
0° 00' 00"
Sunlit
Object was in daylight at epoch
Visualization orbit readout
Latitude
Unknown
Longitude
Unknown
Altitude
Unknown
Speed
Unknown
Apparent Right ascension
Unknown
Apparent Declination
Unknown
Sunlit
N/A
Visualization observer readout
Local Sidereal Time
07:40:20
Azimuth
Unknown
Elevation
Unknown
Doppler factor
Unknown
Orbital elements
Apogee altitude
845.659 km
Perigee altitude
832.655 km
Semi-major axis
7,217.294 km
Eccentricity
0.0009
Inclination
71.0077°
RAAN
183.3969°
Arg. of periapsis
27.4159°
True anomaly
332.69637°
Mean anomaly
332.7437°
Eccentric anomaly
332.72004°
Mean motion
3.53982 °/min
Orbital period
101.7 mins
BSTAR
-0.00010344
Loading maneuver chart data...
Computing Atmospheric mass density...
Loading historical data...
Loading historical data...
Loading historical data...
Loading historical data...
Loading historical data...
Loading historical data...
Loading historical data...

Documentation

Showing up to 5 results
|